EW8414 Weather Reports


Display with metric or nautical units.
time (UTC)temp
F
wind
direction
speed
MPH
gust
MPH
rain 1hr
in
rain 24hr
in
rain mn
in
humidity
%
barometer
mb
20190115112032 32 48 0.0 2.0 0.00 0.01 0.00 77 1023.2
20190115111038 32 33 0.0 2.0 0.00 0.01 0.00 77 1023.2
20190115110032 32 47 1.0 4.0 0.00 0.01 0.00 77 1023.3
20190115105017 32 32 1.0 4.0 0.00 0.01 0.00 77 1023.3
20190115104029 32 37 0.0 2.0 0.00 0.01 0.00 77 1023.6
20190115103035 32 31 2.0 4.0 0.00 0.01 0.00 77 1023.5
20190115102041 32 35 2.0 4.0 0.00 0.01 0.00 77 1023.6
20190115101047 32 26 1.0 2.0 0.00 0.01 0.00 76 1023.6
20190115100021 32 41 0.0 4.0 0.00 0.01 0.00 76 1023.7
20190115095032 32 25 1.0 2.0 0.00 0.01 0.00 76 1023.8
20190115094038 32 22 0.0 2.0 0.00 0.01 0.00 76 1023.7
20190115093044 32 43 1.0 4.0 0.00 0.01 0.00 76 1023.9
20190115092017 32 37 0.0 4.0 0.00 0.01 0.00 76 1023.9
20190115091029 32 26 1.0 2.0 0.00 0.01 0.00 76 1023.7
20190115090035 32 35 0.0 4.0 0.00 0.01 0.00 76 1023.7
20190115085041 32 62 1.0 4.0 0.00 0.01 0.00 76 1023.9
20190115084020 32 45 2.0 4.0 0.00 0.01 0.00 77 1023.9
20190115083026 32 45 1.0 4.0 0.00 0.01 0.00 77 1024.0
20190115082032 32 38 1.0 4.0 0.00 0.01 0.00 77 1024.0
20190115081038 32 40 0.0 2.0 0.00 0.01 0.00 77 1024.3
20190115080044 32 0.0 0.0 0.00 0.01 0.00 77 1024.5
20190115075022 32 36 0.0 2.0 0.00 0.01 0.01 77 1024.3
20190115074028 32 0.0 0.0 0.00 0.01 0.01 77 1024.4
20190115073034 32 44 0.0 4.0 0.00 0.01 0.01 77 1024.5
20190115072041 32 0.0 0.0 0.00 0.01 0.01 77 1024.7
20190115071020 32 24 0.0 4.0 0.00 0.01 0.01 77 1024.7
20190115070025 32 36 1.0 2.0 0.00 0.01 0.01 77 1024.8
20190115065026 32 35 1.0 4.0 0.00 0.01 0.01 77 1024.8
20190115064037 32 50 1.0 4.0 0.00 0.01 0.01 77 1024.9
20190115063049 32 47 1.0 4.0 0.00 0.01 0.01 77 1024.9
20190115062017 32 44 1.0 4.0 0.00 0.01 0.01 77 1024.9
20190115061028 32 57 2.0 7.0 0.00 0.01 0.01 77 1025.0
20190115060034 32 42 2.0 4.0 0.00 0.01 0.01 78 1025.0
20190115055041 32 26 1.0 4.0 0.00 0.01 0.01 79 1024.9
20190115054019 32 24 1.0 2.0 0.00 0.01 0.01 79 1025.0
20190115053025 32 30 0.0 4.0 0.00 0.01 0.01 79 1025.0
20190115052032 32 339 0.0 2.0 0.00 0.01 0.01 78 1025.1
20190115051016 32 337 0.0 4.0 0.00 0.01 0.01 78 1025.2
20190115050032 32 309 1.0 4.0 0.00 0.01 0.01 78 1025.1
20190115045022 32 324 0.0 4.0 0.00 0.01 0.01 78 1024.9
20190115044016 32 323 1.0 7.0 0.00 0.01 0.01 78 1025.0
20190115043035 32 322 1.0 4.0 0.00 0.01 0.01 78 1025.0
20190115042040 32 319 0.0 2.0 0.00 0.01 0.01 79 1024.9
20190115041019 32 336 0.0 4.0 0.00 0.01 0.01 79 1025.0
20190115040025 32 355 0.0 2.0 0.00 0.01 0.01 79 1025.1
20190115035031 32 351 0.0 2.0 0.00 0.01 0.01 79 1025.2
20190115034037 32 332 0.0 2.0 0.00 0.01 0.01 79 1025.2
20190115033043 32 36 0.0 4.0 0.00 0.01 0.01 80 1025.4